Regional Weather Roundup
Issued by NWS

Home | Current Version | Previous Version | Text Only | Print | Product List | Glossary On
Versions: 1 2 3 4 5 6 7 8 9 10 11 12 13 14 15 16 17 18 19 20 21 22 23 24 25 26 27 28 29 30 31 32 33 34 35 36 37 38 39 40 41 42 43 44 45 46 47 48 49 50
000
ASUS44 KLIX 261310
RWRLA
LOUISIANA WEATHER ROUNDUP
NATIONAL WEATHER SERVICE NEW ORLEANS LA
700 AM CST FRI DEC 26 2014

NOTE: "FAIR" INDICATES FEW OR NO CLOUDS BELOW 12,000 FEET WITH NO
      SIGNIFICANT WEATHER AND/OR OBSTRUCTIONS TO VISIBILITY.
      SKY/WX - SKY CONDITION AND SIGNIFICANT WEATHER.
      TMP - AIR TEMPERATURE.    DP   - DEWPOINT TEMPERATURE.
      RH  - RELATIVE HUMIDITY.  PRES - PRESSURE.
      HX  - HEAT INDEX.         WCI  - WIND CHILL INDEX.

*  THESE STATIONS ARE NOT NWS OR FAA STATIONS AND ARE NOT UNDER
   NWS QUALITY CONTROL.

LAZ040-048-061>063-065-066-069-261400-
SOUTHEAST LOUISIANA

CITY           SKY/WX    TMP DP  RH WIND       PRES   REMARKS
N.O. AUDUBON   NOT AVBL
N.O. INTL ARPT CLOUDY    51  47  86 E6        30.19R
N.O. LAKEFRONT MOCLDY    55  51  86 E8        30.20R
N.O. DOWNTOWN* FAIR      55  46  71 E3        30.20R
SLIDELL        PTCLDY    42  40  92 N5        30.21R
BATON ROUGE    CLOUDY    47  42  83 NE7       30.19R
BOOTHVILLE     MOCLDY    53  50  89 E3        30.19R
BELLE CHASSE   CLOUDY    46  43  89 NE5       30.19R
BOGALUSA*        N/A     42  39  89 NE3       30.25R
GALLIANO*      CLOUDY    59  53  81 MISG      30.18R
NEW ROADS*     FAIR      47  43  85 E6        30.18S
GONZALES*      FAIR      48  48 100 CALM      30.18R
HAMMOND*       NOT AVBL
HOUMA*         PTCLDY    48  48 100 E3        30.17R
PORT FOURCHON* SUNNY     63  55  77 SE12      30.19R

$$

LAZ041-044-053-054-261400-
SOUTHWEST LOUISIANA

CITY           SKY/WX    TMP DP  RH WIND       PRES   REMARKS
LAKE CHARLES   CLOUDY    53  50  89 E7        30.10R
LAFAYETTE      MOCLDY    50  45  83 E3        30.16R
PATTERSON      MOCLDY    52  48  87 NE6       30.16R
SALT POINT       N/A     64  51  62 E3        30.13R
NEW IBERIA     PTCLDY    51  47  86 E7        30.16R
CHENAULT AIRPK CLOUDY    52  48  87 E7        30.10S

$$

LAZ027-028-261400-
CENTRAL LOUISIANA

CITY           SKY/WX    TMP DP  RH WIND       PRES   REMARKS
FORT POLK      CLOUDY    50  47  88 E8        30.11R
ALEXANDRIA INT CLOUDY    47  43  86 E7        30.14R
ALEXANDRIA     CLOUDY    45  41  86 NE3       30.16R

$$

LAZ001-002-261400-
NORTHWEST LOUISIANA

CITY           SKY/WX    TMP DP  RH WIND       PRES   REMARKS
SHREVEPORT     CLOUDY    50  44  80 SE8       30.08S
BARKSDALE AFB  CLOUDY    49  42  78 SE8       30.10R
DTN SHREVEPORT CLOUDY    50  42  74 SE14      30.09R

$$

LAZ014-016-261400-
NORTHEAST LOUISIANA

CITY           SKY/WX    TMP DP  RH WIND       PRES   REMARKS
MONROE         CLOUDY    45  40  82 SE3       30.19R
TALLULAH       CLOUDY    42  39  89 SE6       30.23R

$$



USA.gov is the U.S. government's official web portal to all federal, state and local government web resources and services.